FW7134 Weather Reports


time (UTC)temp
C
wind
direction
speed
KPH
gust
KPH
rain 1hr
cm
rain 24hr
cm
rain mn
cm
humidity
%
barometer
mb
20260505011532 10 244 24.1 48.3 0.00 1.17 0.10 100 1003.9
20260505010032 11 265 24.1 37.0 0.00 1.17 0.10 100 1004.0
20260505004540 11 234 29.0 53.1 0.00 1.42 0.10 100 1003.8
20260505003028 11 236 25.7 38.6 0.00 1.42 0.10 100 1003.6
20260505001527 11 247 20.9 40.2 0.00 1.42 0.10 100 1003.4
20260505000026 11 244 20.9 37.0 0.00 1.42 0.10 100 1003.3
20260504234530 11 244 16.1 40.2 0.00 1.65 0.10 100 1003.0
20260504233024 11 247 22.5 32.2 0.00 1.65 0.10 100 1002.8
20260504231536 10 242 17.7 27.4 0.00 1.65 0.10 100 1002.7
20260504230022 10 251 12.9 27.4 0.00 1.65 0.10 100 1002.5
20260504224522 10 268 16.1 30.6 0.00 1.73 0.10 100 1002.6
20260504223021 11 245 20.9 61.2 0.00 1.73 0.10 100 1002.5
20260504221519 12 242 24.1 45.1 0.00 1.73 0.10 58 1002.2
20260504220018 12 257 24.1 35.4 0.00 1.73 0.10 60 1002.0
20260504214519 13 238 24.1 51.5 0.00 1.75 0.10 60 1002.1
20260504213015 13 257 24.1 46.7 0.00 1.75 0.10 69 1002.0
20260504211514 13 243 25.7 46.7 0.00 1.75 0.10 72 1002.1
20260504210014 13 250 29.0 43.5 0.00 1.75 0.10 74 1001.8
20260504204507 13 269 25.7 38.6 0.00 1.75 0.10 70 1001.7
20260504203003 13 237 24.1 40.2 0.00 1.75 0.10 86 1001.3
20260504201602 13 243 24.1 38.6 0.00 1.75 0.10 86 1001.2
20260504200059 13 219 25.7 49.9 0.00 1.75 0.10 100 1000.8
20260504194556 12 253 29.0 51.5 0.00 1.75 0.10 100 1000.8
20260504193052 12 242 29.0 38.6 0.00 1.75 0.10 100 1000.6
20260504191547 12 244 20.9 40.2 0.00 1.75 0.10 100 1000.6
20260504190055 12 259 16.1 41.8 0.00 1.75 0.10 100 1000.4
20260504184558 12 254 19.3 40.2 0.00 1.75 0.10 100 1000.2
20260504183041 12 238 20.9 49.9 0.00 1.75 0.10 100 999.8
20260504181538 11 274 17.7 46.7 0.00 1.75 0.10 100 999.9
20260504180034 12 259 19.3 53.1 0.00 1.75 0.10 100 999.9
20260504174533 12 245 24.1 43.5 0.00 1.75 0.10 100 999.6
20260504173031 11 279 32.2 53.1 0.00 1.75 0.10 100 999.4
20260504171538 11 259 30.6 48.3 0.00 1.75 0.10 100 999.5
20260504044540 3 281 6.4 17.7 0.03 1.40 0.08 100 977.2
20260504043030 4 305 1.6 14.5 0.03 1.40 0.08 100 976.7
20260504041531 4 309 1.6 8.0 0.05 1.40 0.08 100 976.5
20260504040027 4 344 4.8 12.9 0.05 1.37 0.05 100 976.3
20260504034525 4 320 3.2 8.0 0.08 1.37 0.05 100 976.2
20260504033025 4 337 4.8 12.9 0.08 1.37 0.05 100 976.0
20260504031522 3 336 3.2 8.0 0.05 1.35 0.03 100 976.1
20260504030028 3 74 0.0 4.8 0.05 1.32 1.32 100 976.2
20260504024517 3 48 1.6 17.7 0.05 1.30 1.30 100 976.5
20260504023016 4 64 6.4 19.3 0.05 1.30 1.30 100 976.6
20260504021514 4 49 4.8 24.1 0.05 1.30 1.30 100 976.8
20260504020016 4 88 11.3 24.1 0.05 1.27 1.27 100 977.1
20260504014507 5 82 12.9 25.7 0.03 1.24 1.24 100 977.6
20260504013009 5 68 14.5 32.2 0.03 1.24 1.24 100 977.7